Time,TemperatureF,DewpointF,PressureIn,WindDirection,WindDirectionDegrees,WindSpeedMPH,WindSpeedGustMPH,Humidity,HourlyPrecipIn,Conditions,Clouds,dailyrainin,SoftwareType,DateUTC
2013-03-20 00:01:00,24.0,-2.0,29.71,WNW,299,8.0,8.0,31,0.00,,,0.00,,2013-03-20 08:01:00,
2013-03-20 00:21:00,24.0,-2.0,29.71,WNW,293,7.0,8.0,31,0.00,,,0.00,,2013-03-20 08:21:00,
2013-03-20 00:32:00,24.0,-2.0,29.71,WNW,294,6.0,6.0,32,0.00,,,0.00,,2013-03-20 08:32:00,
2013-03-20 00:52:00,24.0,-2.0,29.71,WNW,294,7.0,8.0,31,0.00,,,0.00,,2013-03-20 08:52:00,
2013-03-20 01:01:00,25.0,-1.0,29.71,WNW,300,8.0,9.0,31,0.00,,,0.00,,2013-03-20 09:01:00,
2013-03-20 01:11:00,25.0,-1.0,29.71,WNW,300,8.0,9.0,31,0.00,,,0.00,,2013-03-20 09:11:00,
2013-03-20 01:22:00,24.0,-2.0,29.71,NW,313,6.0,6.0,31,0.00,,,0.00,,2013-03-20 09:22:00,
2013-03-20 01:32:00,25.0,-3.0,29.71,NW,313,6.0,12.0,29,0.00,,,0.00,,2013-03-20 09:32:00,
2013-03-20 02:02:00,24.0,-2.0,29.74,WNW,300,8.0,10.0,31,0.00,,,0.00,,2013-03-20 10:02:00,
2013-03-20 02:32:00,24.0,-2.0,29.71,WNW,293,7.0,8.0,31,0.00,,,0.00,,2013-03-20 10:32:00,
2013-03-20 03:02:00,24.0,-2.0,29.71,WNW,300,7.0,9.0,32,0.00,,,0.00,,2013-03-20 11:02:00,
2013-03-20 03:22:00,24.0,-2.0,29.74,WNW,296,7.0,7.0,32,0.00,,,0.00,,2013-03-20 11:22:00,
2013-03-20 03:32:00,24.0,-2.0,29.71,WNW,290,7.0,7.0,32,0.00,,,0.00,,2013-03-20 11:32:00,
2013-03-20 03:42:00,24.0,-2.0,29.71,WNW,290,7.0,7.0,32,0.00,,,0.00,,2013-03-20 11:42:00,
2013-03-20 03:52:00,25.0,-1.0,29.71,WNW,289,9.0,13.0,31,0.00,,,0.00,,2013-03-20 11:52:00,
2013-03-20 04:02:00,25.0,-1.0,29.71,WNW,293,10.0,10.0,31,0.00,,,0.00,,2013-03-20 12:02:00,
2013-03-20 04:11:00,25.0,-1.0,29.71,WNW,293,10.0,10.0,31,0.00,,,0.00,,2013-03-20 12:11:00,
2013-03-20 04:22:00,25.0,-1.0,29.71,WNW,294,9.0,0.0,31,0.00,,,0.00,,2013-03-20 12:22:00,
2013-03-20 04:32:00,24.0,-2.0,29.71,West,280,7.0,7.0,32,0.00,,,0.00,,2013-03-20 12:32:00,
2013-03-20 05:01:00,25.0,-3.0,29.71,WNW,297,7.0,8.0,29,0.00,,,0.00,,2013-03-20 13:01:00,
2013-03-20 05:22:00,25.0,-3.0,29.71,WNW,297,7.0,11.0,29,0.00,,,0.00,,2013-03-20 13:22:00,
2013-03-20 05:31:00,25.0,-3.0,29.71,WNW,285,9.0,9.0,29,0.00,,,0.00,,2013-03-20 13:31:00,
2013-03-20 06:01:00,25.0,-3.0,29.71,WNW,284,9.0,11.0,29,0.00,,,0.00,,2013-03-20 14:01:00,
2013-03-20 06:11:00,25.0,-3.0,29.71,WNW,284,9.0,11.0,29,0.00,,,0.00,,2013-03-20 14:11:00,
2013-03-20 06:22:00,25.0,-1.0,29.71,WNW,288,9.0,0.0,31,0.00,,,0.00,,2013-03-20 14:22:00,
2013-03-20 06:32:00,25.0,-3.0,29.71,WNW,291,8.0,9.0,29,0.00,,,0.00,,2013-03-20 14:32:00,
2013-03-20 06:43:00,25.0,-3.0,29.71,WNW,291,8.0,9.0,29,0.00,,,0.00,,2013-03-20 14:43:00,
2013-03-20 06:52:00,25.0,-3.0,29.71,WNW,295,8.0,8.0,29,0.00,,,0.00,,2013-03-20 14:52:00,
2013-03-20 07:02:00,26.0,-2.0,29.71,WNW,291,8.0,8.0,29,0.00,,,0.00,,2013-03-20 15:02:00,
2013-03-20 07:12:00,25.0,-3.0,29.71,WNW,282,9.0,11.0,29,0.00,,,0.00,,2013-03-20 15:12:00,
2013-03-20 07:22:00,25.0,-3.0,29.71,WNW,282,9.0,11.0,29,0.00,,,0.00,,2013-03-20 15:22:00,
2013-03-20 07:32:00,25.0,-5.0,29.74,WNW,286,10.0,0.0,26,0.00,,,0.00,,2013-03-20 15:32:00,
2013-03-20 07:42:00,25.0,-5.0,29.74,WNW,286,10.0,0.0,26,0.00,,,0.00,,2013-03-20 15:42:00,
2013-03-20 07:53:00,25.0,-5.0,29.74,WNW,288,11.0,13.0,26,0.00,,,0.00,,2013-03-20 15:53:00,
2013-03-20 08:02:00,24.0,-5.0,29.74,WNW,284,9.0,13.0,27,0.00,,,0.00,,2013-03-20 16:02:00,
2013-03-20 08:12:00,24.0,-5.0,29.74,WNW,284,9.0,13.0,27,0.00,,,0.00,,2013-03-20 16:12:00,
2013-03-20 08:22:00,23.0,-6.0,29.74,WNW,285,6.0,0.0,27,0.00,,,0.00,,2013-03-20 16:22:00,
2013-03-20 08:32:00,24.0,-5.0,29.74,WNW,289,5.0,8.0,27,0.00,,,0.00,,2013-03-20 16:32:00,
2013-03-20 08:52:00,24.0,-5.0,29.74,WNW,282,6.0,7.0,27,0.00,,,0.00,,2013-03-20 16:52:00,
2013-03-20 09:02:00,24.0,-4.0,29.74,West,280,6.0,6.0,29,0.00,,,0.00,,2013-03-20 17:02:00,
2013-03-20 09:11:00,24.0,-4.0,29.74,West,280,6.0,6.0,29,0.00,,,0.00,,2013-03-20 17:11:00,
2013-03-20 09:21:00,25.0,-3.0,29.77,WNW,284,5.0,6.0,29,0.00,,,0.00,,2013-03-20 17:21:00,
2013-03-20 09:32:00,25.0,-3.0,29.74,West,265,4.0,4.0,29,0.00,,,0.00,,2013-03-20 17:32:00,
2013-03-20 09:42:00,25.0,-3.0,29.74,West,265,4.0,4.0,29,0.00,,,0.00,,2013-03-20 17:42:00,
2013-03-20 09:52:00,27.0,-2.0,29.74,West,267,5.0,13.0,28,0.00,,,0.00,,2013-03-20 17:52:00,
2013-03-20 10:01:00,27.0,-2.0,29.77,WNW,287,8.0,8.0,28,0.00,,,0.00,,2013-03-20 18:01:00,
2013-03-20 10:12:00,27.0,-2.0,29.77,WNW,287,8.0,8.0,28,0.00,,,0.00,,2013-03-20 18:12:00,
2013-03-20 10:21:00,28.0,-3.0,29.74,WNW,296,7.0,7.0,25,0.00,,,0.00,,2013-03-20 18:21:00,
2013-03-20 10:32:00,30.0,-2.0,29.77,WNW,299,6.0,8.0,25,0.00,,,0.00,,2013-03-20 18:32:00,
2013-03-20 10:42:00,30.0,-2.0,29.77,WNW,299,6.0,8.0,25,0.00,,,0.00,,2013-03-20 18:42:00,
2013-03-20 10:52:00,30.0,-2.0,29.77,WNW,299,6.0,8.0,25,0.00,,,0.00,,2013-03-20 18:52:00,
2013-03-20 11:01:00,32.0,0.0,29.77,WNW,300,7.0,7.0,25,0.00,,,0.00,,2013-03-20 19:01:00,
2013-03-20 11:11:00,32.0,0.0,29.77,WNW,300,7.0,7.0,25,0.00,,,0.00,,2013-03-20 19:11:00,
2013-03-20 11:22:00,33.0,1.0,29.77,WNW,298,6.0,6.0,25,0.00,,,0.00,,2013-03-20 19:22:00,
2013-03-20 11:32:00,33.0,1.0,29.77,NW,304,6.0,6.0,25,0.00,,,0.00,,2013-03-20 19:32:00,
2013-03-20 11:42:00,33.0,1.0,29.77,NW,304,6.0,6.0,25,0.00,,,0.00,,2013-03-20 19:42:00,
2013-03-20 11:53:00,34.0,2.0,29.77,WNW,303,6.0,10.0,25,0.00,,,0.00,,2013-03-20 19:53:00,
2013-03-20 12:01:00,34.0,2.0,29.77,WNW,301,9.0,10.0,25,0.00,,,0.00,,2013-03-20 20:01:00,
2013-03-20 12:12:00,34.0,2.0,29.77,WNW,301,9.0,10.0,25,0.00,,,0.00,,2013-03-20 20:12:00,
2013-03-20 12:22:00,36.0,1.0,29.74,WNW,299,11.0,12.0,22,0.00,,,0.00,,2013-03-20 20:22:00,
2013-03-20 12:31:00,36.0,1.0,29.77,WNW,293,10.0,10.0,22,0.00,,,0.00,,2013-03-20 20:31:00,
2013-03-20 12:42:00,36.0,1.0,29.77,WNW,293,10.0,10.0,22,0.00,,,0.00,,2013-03-20 20:42:00,
2013-03-20 12:52:00,36.0,1.0,29.77,WNW,294,10.0,11.0,22,0.00,,,0.00,,2013-03-20 20:52:00,
2013-03-20 13:01:00,37.0,1.0,29.77,WNW,288,13.0,13.0,21,0.00,,,0.00,,2013-03-20 21:01:00,
2013-03-20 13:11:00,37.0,1.0,29.77,WNW,288,13.0,13.0,21,0.00,,,0.00,,2013-03-20 21:11:00,
2013-03-20 13:22:00,37.0,1.0,29.77,West,281,14.0,14.0,21,0.00,,,0.00,,2013-03-20 21:22:00,
2013-03-20 13:32:00,37.0,1.0,29.77,West,278,10.0,18.0,21,0.00,,,0.00,,2013-03-20 21:32:00,
2013-03-20 13:42:00,37.0,1.0,29.77,West,278,10.0,18.0,21,0.00,,,0.00,,2013-03-20 21:42:00,
2013-03-20 13:52:00,37.0,1.0,29.77,West,275,9.0,9.0,21,0.00,,,0.00,,2013-03-20 21:52:00,
2013-03-20 14:02:00,37.0,2.0,29.77,West,277,9.0,9.0,22,0.00,,,0.00,,2013-03-20 22:02:00,
2013-03-20 14:12:00,37.0,2.0,29.77,West,277,9.0,9.0,22,0.00,,,0.00,,2013-03-20 22:12:00,
2013-03-20 14:22:00,36.0,1.0,29.77,WNW,283,8.0,8.0,22,0.00,,,0.00,,2013-03-20 22:22:00,
2013-03-20 14:32:00,35.0,0.0,29.77,WNW,287,9.0,15.0,22,0.00,,,0.00,,2013-03-20 22:32:00,
2013-03-20 14:42:00,35.0,0.0,29.77,WNW,287,9.0,15.0,22,0.00,,,0.00,,2013-03-20 22:42:00,
2013-03-20 14:52:00,36.0,1.0,29.77,WNW,284,13.0,26.0,22,0.00,,,0.00,,2013-03-20 22:52:00,
2013-03-20 15:01:00,36.0,1.0,29.77,WNW,284,13.0,17.0,22,0.00,,,0.00,,2013-03-20 23:01:00,
2013-03-20 15:12:00,36.0,1.0,29.77,WNW,284,13.0,17.0,22,0.00,,,0.00,,2013-03-20 23:12:00,
2013-03-20 15:22:00,36.0,1.0,29.77,WNW,286,12.0,13.0,22,0.00,,,0.00,,2013-03-20 23:22:00,
2013-03-20 15:31:00,36.0,1.0,29.77,WNW,290,12.0,12.0,22,0.00,,,0.00,,2013-03-20 23:31:00,
2013-03-20 15:52:00,36.0,1.0,29.80,WNW,289,11.0,11.0,22,0.00,,,0.00,,2013-03-20 23:52:00,
2013-03-20 16:01:00,35.0,0.0,29.80,WNW,288,11.0,13.0,22,0.00,,,0.00,,2013-03-21 00:01:00,
2013-03-20 16:22:00,35.0,2.0,29.80,WNW,288,10.0,13.0,24,0.00,,,0.00,,2013-03-21 00:22:00,
2013-03-20 16:32:00,35.0,2.0,29.80,West,279,9.0,15.0,24,0.00,,,0.00,,2013-03-21 00:32:00,
2013-03-20 16:41:00,35.0,2.0,29.80,West,279,9.0,15.0,24,0.00,,,0.00,,2013-03-21 00:41:00,
2013-03-20 16:52:00,35.0,2.0,29.80,West,262,8.0,10.0,24,0.00,,,0.00,,2013-03-21 00:52:00,
2013-03-20 17:01:00,35.0,4.0,29.80,West,262,9.0,0.0,27,0.00,,,0.00,,2013-03-21 01:01:00,
2013-03-20 17:11:00,35.0,4.0,29.80,West,262,9.0,0.0,27,0.00,,,0.00,,2013-03-21 01:11:00,
2013-03-20 17:21:00,35.0,4.0,29.80,West,269,8.0,8.0,27,0.00,,,0.00,,2013-03-21 01:21:00,
2013-03-20 17:32:00,35.0,4.0,29.80,West,259,6.0,6.0,27,0.00,,,0.00,,2013-03-21 01:32:00,
2013-03-20 17:42:00,35.0,4.0,29.80,West,259,6.0,6.0,27,0.00,,,0.00,,2013-03-21 01:42:00,
2013-03-20 17:52:00,35.0,4.0,29.80,WSW,255,5.0,0.0,27,0.00,,,0.00,,2013-03-21 01:52:00,
2013-03-20 18:01:00,35.0,6.0,29.80,West,261,4.0,6.0,29,0.00,,,0.00,,2013-03-21 02:01:00,
2013-03-20 18:12:00,35.0,6.0,29.80,West,261,4.0,6.0,29,0.00,,,0.00,,2013-03-21 02:12:00,
2013-03-20 18:22:00,35.0,7.0,29.80,WSW,250,4.0,8.0,30,0.00,,,0.00,,2013-03-21 02:22:00,
2013-03-20 18:32:00,34.0,6.0,29.80,WSW,244,5.0,8.0,30,0.00,,,0.00,,2013-03-21 02:32:00,
2013-03-20 18:41:00,34.0,6.0,29.80,WSW,244,5.0,8.0,30,0.00,,,0.00,,2013-03-21 02:41:00,
2013-03-20 18:52:00,34.0,6.0,29.80,WSW,244,5.0,8.0,30,0.00,,,0.00,,2013-03-21 02:52:00,
2013-03-20 19:01:00,33.0,5.0,29.80,West,266,6.0,9.0,30,0.00,,,0.00,,2013-03-21 03:01:00,
2013-03-20 19:11:00,33.0,5.0,29.80,West,266,6.0,9.0,30,0.00,,,0.00,,2013-03-21 03:11:00,
2013-03-20 19:21:00,33.0,3.0,29.80,West,277,7.0,0.0,28,0.00,,,0.00,,2013-03-21 03:21:00,
2013-03-20 19:32:00,33.0,3.0,29.80,West,281,8.0,13.0,28,0.00,,,0.00,,2013-03-21 03:32:00,
2013-03-20 20:02:00,32.0,3.0,29.80,West,265,7.0,9.0,28,0.00,,,0.00,,2013-03-21 04:02:00,
2013-03-20 20:22:00,31.0,2.0,29.80,West,269,8.0,0.0,28,0.00,,,0.00,,2013-03-21 04:22:00,
2013-03-20 20:32:00,32.0,0.0,29.80,West,275,9.0,9.0,25,0.00,,,0.00,,2013-03-21 04:32:00,
2013-03-20 20:53:00,31.0,-1.0,29.80,West,267,7.0,8.0,25,0.00,,,0.00,,2013-03-21 04:53:00,
2013-03-20 21:02:00,30.0,-2.0,29.80,WSW,254,6.0,8.0,25,0.00,,,0.00,,2013-03-21 05:02:00,
2013-03-20 21:21:00,29.0,-2.0,29.80,SW,236,5.0,0.0,25,0.00,,,0.00,,2013-03-21 05:21:00,
2013-03-20 21:32:00,29.0,-2.0,29.80,WSW,250,4.0,8.0,25,0.00,,,0.00,,2013-03-21 05:32:00,
2013-03-20 21:44:00,29.0,-2.0,29.83,SW,223,4.0,0.0,25,0.00,,,0.00,,2013-03-21 05:44:00,
2013-03-20 21:52:00,29.0,-2.0,29.83,SW,223,4.0,0.0,25,0.00,,,0.00,,2013-03-21 05:52:00,
2013-03-20 22:02:00,28.0,-2.0,29.83,ENE,66,2.0,6.0,26,0.00,,,0.00,,2013-03-21 06:02:00,
2013-03-20 22:22:00,28.0,-3.0,29.83,NE,55,2.0,3.0,25,0.00,,,0.00,,2013-03-21 06:22:00,
2013-03-20 22:31:00,28.0,-2.0,29.83,NW,323,3.0,0.0,26,0.00,,,0.00,,2013-03-21 06:31:00,
2013-03-20 22:52:00,27.0,-3.0,29.83,NNW,340,2.0,0.0,26,0.00,,,0.00,,2013-03-21 06:52:00,
2013-03-20 23:01:00,27.0,-2.0,29.85,WNW,292,2.0,4.0,28,0.00,,,0.00,,2013-03-21 07:01:00,
2013-03-20 23:21:00,28.0,-1.0,29.85,WSW,255,3.0,8.0,28,0.00,,,0.00,,2013-03-21 07:21:00,
2013-03-20 23:32:00,29.0,0.0,29.85,West,275,6.0,0.0,28,0.00,,,0.00,,2013-03-21 07:32:00,
2013-03-20 23:41:00,29.0,0.0,29.85,West,275,6.0,0.0,28,0.00,,,0.00,,2013-03-21 07:41:00,
2013-03-20 23:52:00,29.0,0.0,29.85,West,273,8.0,13.0,28,0.00,,,0.00,,2013-03-21 07:52:00,